Location: Knowlton
(51.2333°N, 1.2667°E)
Time: 04:57:03
(UTC+00:00)

COSMOS 2487 - Pass Details

Date: 18 April 2021
Orbit: 432 x 435 km, 74.7° (Epoch: 06 May)

Event Time Altitude Azimuth Distance (km) Brightness Sun altitude
Rises 20:32:28 0° 223° (SW) 2,409 6.2 -13.9°
Reaches altitude 10° 20:34:39 10° 233° (SW) 1,545 5.3 -14.2°
Maximum altitude 20:37:47 34° 300° (WNW) 741 4.2 -14.6°
Drops below altitude 10° 20:40:57 10° 8° (N) 1,558 5.6 -15.0°
Sets 20:43:09 0° 18° (NNE) 2,432 6.4 -15.2°
